Wetbulb
74.63 73.95 73.51 73.77 73.53 73.60 73.48 74.07 75.49 75.40 75.57 75.70 75.49 75.22 74.92 73.96 73.31 73.36 73.19 75.16 73.08 71.11
73.38 72.35 71.95 72.43 73.40 73.39 74.32 74.24 74.93 74.93 75.12 75.23 75.61 75.48 75.12 73.90 73.52 74.13 74.77 74.47 76.46 76.54
73.07 72.68 71.99 72.34 72.06 72.53 73.53 74.34 74.63 74.87 75.20 75.33 75.33 75.58 75.72 74.49 74.79 74.41 74.90 74.56 74.74 76.69
71.34 70.47 71.22 72.39 72.76 73.11 72.94 73.10 73.88 74.64 74.74 74.99 75.07 75.34 74.81 75.12 75.12 74.94 75.66 75.90 74.98 75.16
72.66 72.79 72.17 72.19 72.95 73.85 73.40 72.20 73.72 74.16 74.58 74.57 74.75 75.33 74.97 74.54 74.57 74.69 74.42 74.76 75.41 74.74
71.08 71.75 72.36 73.03 73.18 73.42 74.32 74.87 74.16 73.25 73.60 74.41 74.62 74.91 75.06 74.93 74.98 75.02 74.51 75.13 74.70 74.60
71.00 71.74 73.19 73.34 73.57 73.97 74.90 74.94 74.77 74.48 73.55 73.87 74.56 74.87 74.92 75.03 74.57 74.82 74.75 75.11 75.86 75.36
70.81 72.54 73.40 73.16 73.03 72.89 73.37 73.39 74.55 75.17 74.81 73.60 73.76 72.99 73.82 74.38 73.97 74.22 74.33 75.14 75.38 74.97
68.99 69.96 70.93 71.57 72.00 72.28 72.03 72.24 73.31 73.72 73.47 71.61 70.35 65.58 66.38 67.88 67.65 67.49 67.54 71.37 74.42 75.05
67.91 67.80 68.50 69.54 70.50 71.42 71.25 71.58 71.71 72.40 72.28 70.80 68.18 63.94 64.95 66.23 68.02 68.13 68.58 67.74 68.70 72.78
66.96 66.63 67.31 67.75 68.23 69.80 71.05 70.68 70.46 71.05 72.70 71.13 70.05 62.93 63.36 65.74 68.30 67.56 67.57 68.37 68.84 70.01
66.41 66.30 66.18 65.85 66.66 68.02 68.53 69.02 70.02 69.77 71.42 70.48 70.37 61.93 61.67 64.01 67.55 66.35 66.06 67.44 68.97 69.22
66.27 65.77 65.17 65.65 66.28 67.05 67.44 67.03 67.15 68.74 69.45 68.01 71.11 64.11 61.01 62.81 67.56 65.99 65.43 66.59 67.86 64.36
65.46 65.38 65.60 65.86 65.92 65.67 65.72 66.25 66.20 66.81 68.99 69.09 68.93 69.85 59.16 59.31 67.31 66.39 65.49 65.14 65.64 67.79
MSLP
1014.93 1015.28 1015.50 1015.62 1015.73 1015.82 1015.87 1016.00 1016.25 1016.14 1016.25 1016.52 1016.80 1017.15 1017.40 1017.70 1017.90 1018.02 1018.15 1018.30 1018.99 1019.07
1014.94 1014.87 1015.02 1015.76 1015.30 1015.34 1015.43 1015.57 1015.71 1015.74 1015.73 1015.98 1016.08 1016.39 1016.81 1017.12 1017.40 1017.56 1017.59 1017.66 1018.01 1018.21
1015.01 1015.16 1015.01 1014.90 1015.14 1015.15 1015.00 1015.15 1015.23 1015.26 1015.15 1015.22 1015.49 1015.78 1016.12 1016.29 1016.60 1016.92 1016.95 1016.89 1017.11 1017.45
1015.02 1014.70 1014.52 1014.38 1014.44 1014.66 1014.88 1014.85 1014.77 1014.87 1014.63 1014.66 1014.68 1014.90 1015.42 1015.60 1015.67 1015.94 1016.11 1016.35 1016.40 1016.64
1014.37 1014.48 1014.45 1014.35 1014.19 1014.35 1014.42 1013.59 1013.49 1014.32 1014.01 1013.80 1013.99 1014.13 1014.37 1014.71 1014.77 1015.01 1015.12 1015.43 1015.75 1015.90
1013.94 1014.28 1014.26 1014.07 1013.88 1013.50 1013.35 1013.27 1013.50 1013.62 1013.35 1013.24 1013.20 1013.41 1013.68 1013.77 1013.96 1014.30 1014.43 1014.58 1014.81 1015.11
1013.75 1013.69 1013.63 1013.53 1013.42 1013.16 1012.98 1012.71 1012.57 1012.58 1012.45 1012.57 1012.49 1012.57 1012.99 1013.25 1013.23 1013.31 1013.48 1013.70 1014.04 1014.35
1013.64 1013.54 1013.47 1013.42 1013.18 1012.99 1012.74 1012.37 1012.21 1011.99 1011.87 1011.91 1012.24 1012.51 1013.20 1013.37 1013.54 1013.20 1012.99 1013.00 1013.24 1013.49
1013.48 1013.37 1013.28 1013.24 1013.07 1012.80 1012.51 1012.27 1012.07 1011.76 1011.64 1011.78 1012.36 1011.65 1011.48 1013.84 1013.29 1012.90 1012.79 1012.92 1012.65 1012.74
1013.19 1012.96 1012.88 1012.77 1012.63 1012.36 1012.12 1011.88 1011.66 1011.43 1011.46 1011.78 1012.13 1011.68 1010.51 1011.06 1011.69 1011.85 1010.76 1011.20 1011.91 1011.92
1013.02 1012.92 1012.79 1012.48 1012.14 1011.87 1011.64 1011.56 1011.32 1011.10 1010.88 1011.09 1011.54 1011.78 1011.27 1010.80 1010.65 1010.44 1009.60 1009.08 1010.22 1010.60
1012.46 1012.48 1012.45 1012.38 1012.12 1011.66 1011.44 1011.16 1010.79 1010.58 1010.35 1010.33 1010.19 1010.56 1010.71 1010.54 1009.88 1009.21 1009.19 1008.81 1008.20 1009.28
1011.91 1011.90 1011.74 1011.77 1011.71 1011.46 1011.06 1010.70 1010.35 1009.90 1009.73 1009.49 1009.13 1009.23 1009.41 1009.45 1009.33 1008.99 1008.56 1008.92 1007.59 1008.62
1011.27 1011.07 1010.95 1010.89 1011.01 1010.84 1010.48 1010.01 1009.68 1009.23 1008.78 1008.66 1008.45 1008.24 1008.31 1008.51 1008.46 1007.80 1008.31 1008.10 1008.15 1008.71
Wind_Speed
11 7 7 9 7 8 8 9 10 9 11 12 11 9 9 7 8 7 7 8 6 3
9 9 7 6 7 7 9 9 11 11 12 12 12 11 10 8 9 9 8 8 7 8
5 5 3 4 8 9 10 11 12 13 12 13 13 12 11 10 10 10 9 8 8 8
6 5 4 7 8 9 9 10 12 14 14 14 14 13 11 13 12 12 11 11 10 10
4 4 6 7 9 9 10 6 14 15 15 15 15 14 14 15 13 14 14 13 12 12
3 4 5 6 8 9 10 11 13 13 14 16 16 15 15 15 15 14 15 14 14 14
4 4 5 4 6 7 7 9 11 12 12 14 16 15 15 14 15 14 14 14 13 14
4 5 5 6 7 7 7 6 8 11 12 12 9 6 9 9 11 11 13 13 13 14
6 6 6 7 8 8 8 8 7 7 5 6 5 21 12 4 5 6 3 8 12 14
8 8 8 8 8 9 8 8 8 7 8 9 14 21 26 29 12 10 9 7 5 10
10 8 7 8 9 10 9 9 9 9 8 13 14 16 15 14 10 9 11 11 11 10
10 9 8 8 10 10 9 10 10 9 9 12 14 16 14 13 9 9 11 10 12 14
11 9 9 10 9 10 11 12 11 12 11 13 15 14 20 16 9 13 9 12 10 16
12 11 10 10 9 10 11 12 12 14 13 13 14 15 15 19 14 12 10 10 8 8
Wind_Direction
199 207 218 230 240 260 261 265 255 235 232 228 227 228 230 236 242 239 237 225 179 178
192 189 216 242 222 246 255 259 254 241 241 237 233 226 226 236 230 239 236 236 207 193
181 213 263 266 266 254 257 258 253 249 240 239 243 233 227 236 233 237 238 237 233 223
187 182 244 267 249 251 254 249 257 254 243 241 237 231 235 241 239 234 241 240 240 234
160 211 256 267 263 240 242 229 255 254 249 239 240 239 230 234 235 233 239 235 234 245
286 274 259 269 281 281 276 256 252 241 248 249 241 236 236 233 235 231 239 242 232 233
250 279 281 295 293 291 282 268 256 250 240 241 245 241 240 241 237 234 239 240 237 239
289 277 264 276 289 297 297 292 288 267 246 234 233 242 263 259 267 267 258 249 242 241
300 298 277 273 275 275 287 293 297 281 258 200 134 116 106 178 181 162 108 312 274 260
308 304 302 306 295 280 279 291 292 280 237 178 166 164 161 184 191 207 187 189 231 271
289 281 286 301 300 292 288 283 283 281 248 214 203 208 203 200 206 207 197 186 222 222
270 275 290 292 290 289 287 284 275 274 257 225 226 208 219 210 238 254 238 222 200 230
280 265 279 286 275 278 278 273 276 269 258 253 253 219 225 219 235 241 242 257 231 223
264 267 276 269 268 269 268 274 267 265 260 254 253 256 220 232 238 241 246 245 247 243